Location: Blankensee
(53.5126°N, 14.3055°E)
Time: 18:23:49
(UTC+00:00)

Cosmos 1634 Rocket - Pass Details

Date: 08 August 2020
Orbit: 959 x 992 km, 82.9° (Epoch: 20 September)

Event Time Altitude Azimuth Distance (km) Brightness Sun altitude
Exits shadow 00:31:18 26° 177° (S) 1,809 4.9 -18.2°
Maximum altitude 00:34:58 75° 97° (E) 1,014 4.1 -18.0°
Drops below altitude 10° 00:41:12 10° 13° (NNE) 2,726 7.6 -17.6°
Sets 00:43:43 0° 12° (NNE) 3,673 8.6 -17.5°
